Wind_Speed
6 5 4 4 4 3 3 3 3 3 3 2 2 2 1 1 1 1 0 1 1 1 1 1 1 1 1 1 1 2 2 3 2 3 3 3 4 4 4 4 4 4 4
6 6 5 4 3 3 3 3 3 3 2 2 2 2 1 1 1 0 0 1 1 0 1 2 1 2 2 2 2 3 3 3 3 3 4 4 4 5 5 5 5 5 5
7 7 6 5 4 4 3 3 3 3 2 1 1 1 2 1 1 1 1 1 1 1 2 2 2 2 2 3 4 3 3 4 4 4 4 4 5 5 5 5 5 6 6
8 7 7 6 5 5 4 3 4 4 3 3 2 2 1 2 2 2 1 1 1 2 2 3 3 3 3 4 4 4 4 5 5 4 4 4 5 5 6 6 6 7 7
9 8 8 7 6 6 5 4 4 4 4 4 3 3 2 3 3 2 3 3 3 3 3 4 4 4 4 4 4 4 5 5 5 5 5 6 6 6 7 7 8 8 9
10 9 9 8 7 7 6 5 5 5 5 5 4 4 4 4 4 4 4 4 4 3 4 4 5 5 5 5 5 5 6 6 6 6 7 7 7 8 8 9 9 9 10
11 10 10 9 9 8 7 6 6 6 6 6 5 6 5 5 5 6 5 6 5 5 5 6 6 6 6 7 7 7 7 7 8 8 8 9 10 10 10 11 11 11 12
11 11 11 10 9 9 8 7 7 7 7 7 7 6 7 7 7 8 8 8 8 7 7 7 8 8 8 8 8 9 9 9 9 9 10 10 11 11 12 13 13 13 14
11 12 12 11 10 10 9 9 9 9 8 8 8 8 8 9 9 9 8 9 9 9 9 8 9 9 9 10 10 10 10 11 11 11 12 12 13 13 14 14 14 15 16
12 12 12 12 11 11 10 10 10 10 10 9 9 9 9 9 10 9 9 10 10 10 11 10 10 10 11 11 11 12 12 12 13 13 14 15 15 16 16 16 17 18 18
12 13 13 13 12 12 11 11 11 11 10 10 10 11 11 11 11 12 12 11 11 12 12 13 13 13 13 13 13 13 14 14 15 16 16 17 17 18 18 19 19 19 20
11 12 12 13 13 12 12 12 12 12 11 12 12 12 12 12 12 13 13 13 14 14 15 16 15 15 16 16 16 16 17 17 17 18 19 19 20 20 21 21 22 23 23
11 12 12 13 14 13 13 13 13 13 13 13 13 13 13 14 14 14 14 15 16 16 17 18 18 18 18 18 18 19 20 20 20 21 21 21 22 23 23 24 25 25 26
11 11 12 13 14 15 15 14 14 14 14 14 15 15 15 15 16 15 16 16 17 17 18 18 19 18 19 19 20 21 22 22 23 24 24 24 25 25 25 26 27 28 28
10 11 12 13 14 14 15 15 15 15 15 15 15 15 16 16 16 16 17 18 18 19 19 20 20 20 21 22 22 23 24 25 25 25 26 26 27 27 28 28 29 30 30
9 11 12 13 13 13 14 14 15 15 16 16 16 16 16 16 17 18 18 19 19 19 20 21 22 21 22 23 24 25 26 26 26 27 27 28 28 29 30 30 31 31 31
8 9 11 13 13 13 14 13 14 14 15 16 17 17 17 18 18 19 19 20 20 20 21 22 23 23 24 25 26 26 27 27 27 28 28 29 29 30 31 31 32 32 32
9 10 11 12 13 14 14 15 15 15 16 17 18 18 19 19 19 20 20 20 21 21 22 23 24 24 25 26 26 27 28 28 29 29 29 30 31 32 33 32 33 33 33
11 11 12 13 13 14 15 16 16 16 17 18 19 19 20 20 20 21 21 22 22 23 23 24 25 26 27 27 27 29 29 29 30 30 30 31 31 32 32 32 32 33 33
12 13 13 14 15 16 17 17 17 18 19 19 20 21 21 21 21 22 23 23 24 24 25 26 27 27 28 28 29 29 29 29 29 30 30 30 31 32 32 32 33 33 33
14 14 14 15 16 17 17 18 19 20 20 21 21 21 21 22 23 24 24 24 24 25 26 27 28 29 29 29 29 29 29 29 29 30 30 30 31 32 33 33 34 34 35
15 15 15 17 18 18 18 20 20 20 20 21 22 22 23 23 24 25 25 25 26 27 27 28 28 29 30 29 29 29 29 30 30 31 32 32 33 33 34 35 35 35 35
17 17 18 18 18 18 19 20 20 20 21 21 22 23 24 25 25 26 26 27 27 27 28 29 29 29 29 29 29 30 31 31 32 33 34 34 34 34 34 34 35 35 35
19 19 19 19 20 20 20 21 21 22 22 23 24 24 25 26 27 27 27 28 28 28 28 30 30 30 29 30 30 31 31 32 32 33 33 34 34 35 35 35 36 36 36
20 20 20 21 21 22 22 23 23 24 24 24 25 26 27 27 28 28 28 29 29 30 31 30 30 30 30 30 31 32 32 33 33 33 33 34 35 35 35 35 36 36 36
21 21 22 22 23 24 24 25 25 25 26 26 26 27 27 28 28 29 30 30 31 31 31 30 30 30 30 31 31 32 33 33 34 34 34 34 35 36 36 36 36 36 36
Wind_Direction
228 222 218 213 208 195 192 196 188 181 182 178 183 178 180 170 182 182 155 187 204 278 308 308 301 308 308 293 306 310 312 302 294 296 305 310 302 303 302 298 304 307 305
232 232 224 227 221 203 204 203 198 204 205 209 201 205 220 207 169 198 229 216 226 306 339 335 321 324 306 304 299 291 297 301 294 289 296 299 299 298 300 296 297 300 303
235 233 232 239 232 220 215 219 211 220 217 215 222 239 232 222 222 247 259 213 241 297 323 337 329 321 309 304 297 292 298 302 295 292 295 299 298 299 296 294 292 293 296
235 231 237 241 235 226 228 230 226 230 234 234 242 250 240 242 255 253 241 233 261 290 304 317 331 323 316 311 303 301 301 309 300 296 297 303 304 300 293 295 293 292 294
233 234 236 240 239 237 238 239 238 239 240 241 244 247 253 248 255 258 256 256 271 296 304 311 314 317 313 313 311 304 303 308 308 304 300 298 298 295 290 294 296 294 293
234 234 235 238 240 243 248 247 247 252 252 249 249 251 257 260 264 269 264 267 277 289 299 302 305 307 308 309 308 303 300 301 302 300 300 296 294 294 291 294 297 296 295
233 233 234 235 239 242 246 253 255 255 258 255 254 255 260 268 271 272 271 276 277 285 291 295 301 299 299 297 295 294 296 297 298 296 293 291 290 292 294 294 294 295 296
236 235 233 234 237 239 241 251 258 260 260 256 256 261 263 266 268 271 273 276 281 282 284 285 290 291 291 291 290 293 293 294 298 296 293 293 293 295 295 294 294 294 296
236 235 234 236 240 240 243 251 259 262 264 262 261 263 264 264 272 272 273 276 278 279 283 286 287 287 290 291 291 290 291 292 294 291 292 292 293 295 297 296 296 294 294
235 235 234 235 239 243 247 254 262 263 265 264 263 265 270 273 277 278 278 278 279 281 283 284 284 285 288 291 289 288 289 290 291 290 291 292 293 294 295 295 296 295 294
238 238 236 236 242 246 251 258 265 266 266 267 267 267 272 276 278 279 280 282 281 280 283 282 283 285 287 289 289 289 289 290 290 290 292 292 292 292 293 294 296 296 295
241 239 239 241 247 248 251 257 262 267 270 269 269 270 274 278 282 280 281 282 283 282 282 282 282 284 286 287 287 288 289 287 288 288 291 291 291 291 291 292 294 294 295
245 243 242 246 248 247 251 256 261 266 269 270 269 271 271 274 280 279 281 283 284 284 285 284 284 284 285 284 285 287 287 287 287 288 289 289 289 290 290 291 292 293 294
251 250 248 251 251 252 255 257 261 265 269 269 270 271 271 272 276 278 280 283 285 286 286 286 286 284 285 286 286 287 289 289 288 288 287 288 289 289 290 291 292 293 293
262 253 252 254 255 256 258 259 262 264 269 272 272 274 275 275 276 279 282 283 283 284 284 284 285 284 286 288 289 289 289 289 288 287 287 287 288 288 290 290 292 292 293
269 259 256 257 258 259 264 265 264 268 271 271 273 277 278 280 281 281 283 283 283 282 284 285 284 284 288 289 288 289 290 288 286 287 287 288 289 290 291 292 292 293 293
274 268 264 262 260 261 264 266 270 273 273 276 277 277 278 282 284 285 285 285 284 284 284 285 284 285 287 289 289 289 289 288 287 288 288 289 289 291 291 293 294 294 293
280 276 273 270 264 263 265 267 271 275 277 277 278 280 281 282 283 285 285 285 286 288 287 287 287 287 289 290 289 290 290 289 289 288 287 288 290 290 291 292 292 293 294
286 284 280 273 270 270 270 273 275 276 277 278 279 280 282 282 283 285 285 285 286 287 288 289 288 288 288 289 289 291 291 292 291 290 289 291 291 291 292 294 295 295 295
289 289 284 278 276 273 272 275 278 279 279 281 281 283 283 282 283 284 285 286 287 288 288 288 289 290 290 290 292 292 291 292 292 291 291 292 292 292 293 294 294 295 295
290 290 286 283 280 277 276 279 280 280 281 282 283 283 284 284 284 284 286 288 289 288 288 289 290 291 292 291 291 292 291 291 291 291 291 291 291 292 294 294 295 295 295
292 290 292 288 283 280 280 280 283 284 285 285 285 285 285 285 286 286 287 288 289 288 289 290 291 291 290 290 290 292 292 292 291 290 290 291 292 293 293 294 296 296 296
293 290 291 292 289 287 285 284 285 285 287 287 287 288 288 286 287 288 288 290 292 291 291 291 292 291 290 289 289 291 291 291 292 292 291 293 293 293 293 294 295 296 296
292 293 293 292 292 289 287 285 285 286 286 287 287 288 288 288 287 288 290 291 292 293 292 292 291 291 291 291 291 291 291 293 294 294 293 292 292 292 293 294 295 297 297
293 292 292 294 295 294 291 288 286 286 287 288 288 289 289 289 289 289 291 292 293 292 292 292 291 291 290 290 291 291 292 293 293 294 294 294 293 293 295 295 296 297 297
297 294 293 292 293 293 292 291 289 288 287 288 289 290 290 290 290 290 291 292 291 291 291 292 291 291 290 290 292 292 291 292 294 294 294 293 294 295 296 296 296 296 297
Height
5909 5910 5910 5911 5912 5913 5913 5914 5914 5915 5915 5915 5916 5916 5916 5917 5917 5917 5918 5918 5918 5919 5919 5919 5919 5920 5920 5920 5920 5920 5920 5920 5920 5920 5920 5920 5920 5920 5919 5919 5919 5918 5918
5909 5910 5910 5911 5912 5913 5913 5914 5914 5914 5915 5915 5916 5916 5917 5917 5917 5918 5918 5918 5918 5919 5919 5919 5919 5919 5919 5919 5920 5920 5919 5919 5919 5919 5919 5919 5919 5919 5919 5918 5918 5918 5917
5908 5909 5910 5911 5912 5913 5913 5914 5914 5914 5915 5915 5916 5917 5917 5917 5917 5918 5918 5918 5918 5919 5919 5919 5919 5919 5919 5919 5919 5919 5919 5919 5918 5918 5918 5918 5918 5917 5917 5917 5917 5916 5916
5907 5909 5910 5911 5911 5912 5913 5914 5914 5914 5915 5915 5916 5916 5917 5917 5917 5917 5918 5918 5918 5918 5918 5918 5918 5918 5918 5918 5918 5918 5918 5918 5917 5917 5917 5917 5917 5916 5916 5916 5915 5915 5914
5906 5908 5909 5910 5911 5912 5912 5913 5914 5914 5915 5915 5915 5916 5916 5917 5917 5917 5917 5917 5918 5918 5918 5918 5918 5918 5917 5917 5917 5917 5917 5916 5916 5916 5916 5916 5915 5915 5914 5914 5914 5913 5912
5904 5906 5908 5909 5910 5911 5912 5913 5913 5914 5914 5914 5915 5915 5915 5916 5916 5916 5916 5917 5917 5917 5917 5917 5917 5917 5916 5916 5916 5916 5915 5915 5915 5915 5914 5914 5914 5913 5913 5912 5912 5911 5910
5903 5905 5906 5908 5909 5910 5911 5912 5912 5913 5913 5913 5914 5914 5914 5915 5915 5915 5915 5915 5915 5916 5916 5916 5916 5915 5915 5915 5915 5915 5914 5914 5913 5913 5913 5912 5912 5911 5911 5910 5909 5909 5908
5901 5903 5905 5906 5907 5908 5910 5910 5911 5912 5912 5912 5912 5913 5913 5914 5913 5913 5914 5914 5914 5914 5914 5914 5914 5914 5914 5913 5913 5913 5913 5912 5911 5911 5910 5910 5910 5909 5908 5908 5907 5906 5905
5899 5901 5903 5904 5906 5907 5908 5909 5909 5910 5910 5911 5911 5911 5912 5912 5912 5912 5912 5912 5912 5912 5912 5912 5912 5912 5912 5912 5911 5911 5910 5910 5909 5909 5908 5908 5907 5906 5905 5904 5904 5903 5902
5898 5899 5901 5902 5904 5905 5906 5907 5907 5908 5908 5909 5909 5909 5910 5910 5910 5910 5910 5910 5910 5910 5910 5910 5910 5909 5909 5909 5909 5908 5908 5907 5906 5906 5905 5905 5904 5903 5902 5901 5900 5899 5898
5896 5897 5898 5900 5901 5903 5904 5904 5905 5905 5906 5906 5906 5907 5907 5907 5907 5907 5907 5908 5908 5907 5907 5907 5907 5907 5906 5906 5906 5905 5904 5904 5903 5903 5902 5901 5900 5899 5898 5897 5896 5895 5893
5894 5895 5897 5898 5899 5900 5901 5902 5903 5903 5903 5904 5904 5904 5904 5904 5904 5904 5905 5905 5905 5905 5904 5904 5904 5903 5903 5903 5902 5902 5901 5900 5899 5898 5898 5897 5896 5895 5894 5893 5891 5890 5888
5892 5893 5894 5895 5896 5898 5899 5899 5900 5900 5900 5901 5901 5901 5901 5901 5902 5901 5901 5901 5901 5901 5901 5900 5900 5899 5899 5899 5898 5898 5897 5896 5895 5894 5893 5892 5891 5890 5889 5887 5886 5884 5882
5889 5890 5891 5892 5893 5894 5895 5896 5897 5897 5897 5897 5897 5898 5898 5898 5898 5898 5898 5897 5897 5897 5897 5896 5896 5895 5895 5894 5893 5893 5892 5891 5890 5889 5888 5887 5885 5884 5883 5881 5880 5878 5876
5886 5887 5888 5889 5890 5891 5892 5892 5893 5893 5894 5894 5894 5894 5894 5894 5894 5894 5894 5893 5893 5893 5892 5892 5891 5891 5890 5889 5888 5887 5886 5885 5884 5883 5882 5880 5879 5878 5876 5874 5873 5871 5869
5883 5884 5885 5886 5887 5888 5888 5889 5889 5890 5890 5890 5890 5890 5890 5890 5890 5890 5889 5889 5888 5888 5887 5886 5886 5885 5884 5884 5882 5881 5880 5879 5878 5876 5875 5874 5872 5871 5869 5867 5865 5863 5861
5881 5882 5882 5883 5884 5884 5885 5886 5886 5886 5886 5886 5886 5886 5886 5885 5885 5885 5884 5884 5883 5882 5882 5881 5879 5879 5879 5878 5876 5875 5873 5872 5871 5870 5868 5867 5865 5863 5862 5860 5858 5855 5853
5879 5879 5880 5880 5880 5881 5882 5882 5882 5882 5883 5882 5882 5882 5881 5881 5880 5880 5879 5878 5878 5877 5876 5875 5874 5873 5872 5871 5869 5868 5867 5865 5864 5862 5861 5859 5858 5856 5853 5851 5849 5847 5845
5877 5877 5877 5877 5877 5878 5878 5878 5878 5878 5878 5878 5877 5877 5876 5876 5875 5875 5874 5873 5872 5871 5871 5869 5868 5867 5866 5864 5863 5861 5860 5858 5857 5855 5853 5851 5850 5848 5846 5843 5841 5839 5836
5874 5874 5874 5874 5874 5874 5874 5874 5874 5874 5874 5873 5873 5872 5871 5870 5870 5869 5868 5867 5866 5865 5864 5863 5862 5860 5859 5857 5856 5854 5852 5850 5849 5847 5846 5844 5842 5840 5838 5835 5833 5831 5828
5871 5871 5870 5870 5870 5869 5869 5869 5869 5869 5869 5868 5867 5867 5866 5865 5864 5863 5862 5861 5860 5859 5857 5856 5855 5853 5852 5849 5848 5846 5845 5843 5841 5839 5838 5836 5834 5832 5830 5827 5824 5822 5819
5868 5867 5867 5866 5866 5865 5865 5865 5864 5864 5863 5862 5862 5861 5860 5859 5858 5857 5856 5855 5853 5852 5851 5849 5848 5846 5844 5842 5840 5839 5837 5835 5834 5832 5830 5828 5826 5824 5821 5818 5815 5813 5810
5864 5863 5863 5862 5861 5860 5860 5860 5859 5858 5858 5857 5856 5855 5854 5853 5852 5851 5849 5848 5846 5844 5843 5842 5840 5838 5836 5834 5833 5831 5829 5828 5826 5824 5821 5819 5817 5815 5812 5809 5806 5803 5800
5861 5859 5858 5857 5857 5856 5855 5854 5854 5853 5852 5851 5850 5849 5848 5847 5845 5844 5842 5841 5839 5837 5836 5834 5832 5830 5829 5827 5825 5824 5822 5819 5817 5815 5813 5810 5808 5805 5803 5800 5797 5794 5791
5856 5855 5854 5853 5852 5851 5849 5849 5848 5847 5846 5845 5844 5843 5841 5840 5838 5837 5835 5833 5832 5830 5828 5826 5824 5822 5821 5819 5817 5815 5813 5811 5808 5806 5804 5801 5799 5796 5793 5790 5787 5784 5781
5852 5850 5849 5848 5846 5845 5844 5842 5841 5840 5839 5838 5837 5836 5834 5832 5831 5829 5827 5826 5824 5822 5820 5818 5816 5814 5812 5810 5808 5807 5805 5802 5800 5797 5795 5792 5789 5787 5784 5781 5778 5774 5771